Aurora, OR

12:15 AM PST on November 23, 2017 (GMT -0800)
Aurora State

Weather History for KUAO - May, 2014

Change the Weather History Date:

Wednesday, May 7, 2014

  Actual Average Record
Temperature  
Mean Temperature 50 °F -  
Max Temperature 63 °F - 85 °F (2016)
Min Temperature 38 °F - 38 °F (2014)
Degree Days  
Heating Degree Days 14    
Month to date heating degree days 58  
Since 1 July heating degree days 4385  
Cooling Degree Days 0    
Month to date cooling degree days 3  
Year to date cooling degree days 8  
Moisture  
Dew Point 40 °F    
Average Humidity 70    
Maximum Humidity 100    
Minimum Humidity 39    
Precipitation  
Precipitation 0.00 in - 0.82 in (1963)
Month to date precipitation 0.44  
Year to date precipitation 19.32  
Sea Level Pressure  
Sea Level Pressure 30.01 in    
Wind  
Wind Speed 2 mph (SW)    
Max Wind Speed 9 mph    
Max Gust Speed 12 mph    
Visibility 10 miles    
Events      
T = Trace of Precipitation, MM = Missing Value Source: NWS Daily Summary

Daily Weather History Graph

Daily Weather History Graph

Search for Another Location

Airport or City:

Trip Planner

Search our weather history database for the weather conditions in past years. The results will help you decide how hot, cold, wet, or windy it might be!

Date:

Astronomy

May. 07, 2014 Rise Set
Actual Time 5:51 AM PDT 8:24 PM PDT
Civil Twilight 5:17 AM PDT 8:58 PM PDT
Nautical Twilight 4:36 AM PDT 9:40 PM PDT
Astronomical Twilight 3:48 AM PDT 10:28 PM PDT
Moon 1:15 PM PDT (5/7) 2:13 AM PDT (5/7)
Length of Visible Light 15h 40m
Length of Day
14h 33m
First Quarter, 56% of the Moon is Illuminated
May 7
First Quarter
May 14
Full
May 21
Last Quarter
May 28
New
Jun 5
First Quarter

Hourly Weather History & Observations

Time (PDT) Temp. Dew Point Humidity Pressure Visibility Wind Dir Wind Speed Gust Speed Precip Events Conditions
12:53 AM 45.0 °F 39.0 °F 80% 30.07 in 10.0 mi Calm Calm - N/A   Clear
1:53 AM 43.0 °F 37.9 °F 82% 30.08 in 10.0 mi Calm Calm - N/A   Clear
2:53 AM 41.0 °F 37.9 °F 89% 30.08 in 10.0 mi Calm Calm - N/A   Clear
3:53 AM 39.9 °F 37.9 °F 93% 30.08 in 10.0 mi Calm Calm - N/A   Clear
4:53 AM 39.0 °F 37.0 °F 93% 30.08 in 10.0 mi Calm Calm - N/A   Clear
5:53 AM 37.9 °F 37.0 °F 97% 30.07 in 10.0 mi Calm Calm - N/A   Clear
6:53 AM 39.9 °F 39.0 °F 97% 30.07 in 10.0 mi Calm Calm - N/A   Clear
7:53 AM 44.1 °F 41.0 °F 89% 30.08 in 10.0 mi Calm Calm - N/A   Clear
8:53 AM 48.0 °F 42.1 °F 80% 30.09 in 10.0 mi Calm Calm - N/A   Clear
11:53 AM 55.9 °F 41.0 °F 57% 30.06 in 10.0 mi Variable 4.6 mph - N/A   Partly Cloudy
12:53 PM 57.0 °F 37.9 °F 49% 30.03 in 10.0 mi Calm Calm - N/A   Clear
1:53 PM 59.0 °F 39.9 °F 49% 30.01 in 10.0 mi Variable 4.6 mph - N/A   Partly Cloudy
2:53 PM 60.1 °F 39.9 °F 47% 29.99 in 10.0 mi Variable 4.6 mph - N/A   Clear
3:53 PM 62.1 °F 39.9 °F 44% 29.97 in 10.0 mi West 8.1 mph - N/A   Clear
4:53 PM 62.1 °F 39.9 °F 44% 29.96 in 10.0 mi South 3.5 mph - N/A   Clear
5:53 PM 62.1 °F 39.0 °F 43% 29.94 in 10.0 mi SSW 5.8 mph - N/A   Clear
6:53 PM 62.1 °F 37.9 °F 41% 29.94 in 10.0 mi WSW 4.6 mph - N/A   Clear
7:53 PM 57.9 °F 41.0 °F 53% 29.93 in 10.0 mi Calm Calm - N/A   Clear
8:53 PM 55.9 °F 45.0 °F 67% 29.94 in 10.0 mi SW 5.8 mph - N/A   Clear
9:53 PM 53.1 °F 45.0 °F 74% 29.93 in 10.0 mi Calm Calm - N/A   Clear
10:53 PM 52.0 °F 43.0 °F 71% 29.93 in 10.0 mi South 5.8 mph - N/A   Clear
11:53 PM 50.0 °F 45.0 °F 83% 29.94 in 10.0 mi South 5.8 mph - N/A   Partly Cloudy